Time,TemperatureF,DewpointF,PressureIn,WindDirection,WindDirectionDegrees,WindSpeedMPH,WindSpeedGustMPH,Humidity,HourlyPrecipIn,Conditions,Clouds,dailyrainin,SoftwareType,DateUTC
2013-04-26 00:01:00,44.0,42.0,30.19,North,354,0.0,0.0,91,0.00,,,0.00,,2013-04-26 07:01:00,
2013-04-26 00:11:00,44.0,42.0,30.19,North,354,0.0,0.0,91,0.00,,,0.00,,2013-04-26 07:11:00,
2013-04-26 00:22:00,43.0,41.0,30.19,North,354,0.0,0.0,92,0.00,,,0.00,,2013-04-26 07:22:00,
2013-04-26 00:31:00,42.0,40.0,30.19,North,354,0.0,0.0,93,0.00,,,0.00,,2013-04-26 07:31:00,
2013-04-26 00:42:00,42.0,40.0,30.19,North,354,0.0,0.0,93,0.00,,,0.00,,2013-04-26 07:42:00,
2013-04-26 00:52:00,41.0,39.0,30.19,North,354,0.0,0.0,94,0.00,,,0.00,,2013-04-26 07:52:00,
2013-04-26 01:02:00,41.0,39.0,30.19,North,354,0.0,0.0,94,0.00,,,0.00,,2013-04-26 08:02:00,
2013-04-26 01:11:00,41.0,39.0,30.19,North,354,0.0,0.0,94,0.00,,,0.00,,2013-04-26 08:11:00,
2013-04-26 01:21:00,40.0,39.0,30.20,North,354,0.0,0.0,95,0.00,,,0.00,,2013-04-26 08:21:00,
2013-04-26 01:31:00,40.0,39.0,30.20,North,354,0.0,0.0,95,0.00,,,0.00,,2013-04-26 08:31:00,
2013-04-26 01:42:00,40.0,39.0,30.20,North,354,0.0,0.0,95,0.00,,,0.00,,2013-04-26 08:42:00,
2013-04-26 01:52:00,39.0,38.0,30.21,North,354,0.0,0.0,95,0.00,,,0.00,,2013-04-26 08:52:00,
2013-04-26 02:01:00,39.0,38.0,30.21,North,354,0.0,0.0,96,0.00,,,0.00,,2013-04-26 09:01:00,
2013-04-26 02:11:00,39.0,38.0,30.21,North,354,0.0,0.0,96,0.00,,,0.00,,2013-04-26 09:11:00,
2013-04-26 02:21:00,39.0,38.0,30.22,North,354,0.0,0.0,96,0.00,,,0.00,,2013-04-26 09:21:00,
2013-04-26 02:32:00,38.0,37.0,30.22,North,354,0.0,0.0,96,0.00,,,0.00,,2013-04-26 09:32:00,
2013-04-26 02:42:00,38.0,37.0,30.22,North,354,0.0,0.0,96,0.00,,,0.00,,2013-04-26 09:42:00,
2013-04-26 02:53:00,38.0,37.0,30.22,North,354,0.0,0.0,96,0.00,,,0.00,,2013-04-26 09:53:00,
2013-04-26 03:02:00,37.0,36.0,30.22,North,354,0.0,0.0,96,0.00,,,0.00,,2013-04-26 10:02:00,
2013-04-26 03:12:00,37.0,36.0,30.22,North,354,0.0,0.0,96,0.00,,,0.00,,2013-04-26 10:12:00,
2013-04-26 03:22:00,37.0,36.0,30.22,North,354,0.0,0.0,97,0.00,,,0.00,,2013-04-26 10:22:00,
2013-04-26 03:32:00,36.0,35.0,30.22,North,354,0.0,0.0,96,0.00,,,0.00,,2013-04-26 10:32:00,
2013-04-26 03:42:00,36.0,35.0,30.22,North,354,0.0,0.0,96,0.00,,,0.00,,2013-04-26 10:42:00,
2013-04-26 03:52:00,36.0,35.0,30.22,North,354,0.0,0.0,97,0.00,,,0.00,,2013-04-26 10:52:00,
2013-04-26 04:02:00,37.0,36.0,30.21,North,354,0.0,0.0,97,0.00,,,0.00,,2013-04-26 11:02:00,
2013-04-26 04:11:00,37.0,36.0,30.21,North,354,0.0,0.0,97,0.00,,,0.00,,2013-04-26 11:11:00,
2013-04-26 04:22:00,37.0,36.0,30.22,North,352,0.0,0.0,97,0.00,,,0.00,,2013-04-26 11:22:00,
2013-04-26 04:32:00,38.0,37.0,30.23,North,353,0.0,0.0,98,0.00,,,0.00,,2013-04-26 11:32:00,
2013-04-26 04:41:00,38.0,37.0,30.23,North,353,0.0,0.0,98,0.00,,,0.00,,2013-04-26 11:41:00,
2013-04-26 04:52:00,39.0,38.0,30.23,North,353,0.0,0.0,98,0.00,,,0.00,,2013-04-26 11:52:00,
2013-04-26 05:01:00,40.0,39.0,30.23,North,353,0.0,0.0,98,0.00,,,0.00,,2013-04-26 12:01:00,
2013-04-26 05:11:00,40.0,39.0,30.23,North,353,0.0,0.0,98,0.00,,,0.00,,2013-04-26 12:11:00,
2013-04-26 05:21:00,40.0,39.0,30.23,North,353,0.0,0.0,98,0.00,,,0.00,,2013-04-26 12:21:00,
2013-04-26 05:32:00,40.0,39.0,30.23,North,353,0.0,0.0,98,0.00,,,0.00,,2013-04-26 12:32:00,
2013-04-26 05:41:00,40.0,39.0,30.23,North,353,0.0,0.0,98,0.00,,,0.00,,2013-04-26 12:41:00,
2013-04-26 05:52:00,40.0,39.0,30.24,West,280,0.0,0.0,97,0.00,,,0.00,,2013-04-26 12:52:00,
2013-04-26 06:01:00,40.0,39.0,30.24,West,280,0.0,0.0,97,0.00,,,0.00,,2013-04-26 13:01:00,
2013-04-26 06:11:00,40.0,39.0,30.24,West,280,0.0,0.0,97,0.00,,,0.00,,2013-04-26 13:11:00,
2013-04-26 06:21:00,39.0,38.0,30.23,West,280,0.0,0.0,97,0.00,,,0.00,,2013-04-26 13:21:00,
2013-04-26 06:31:00,39.0,38.0,30.24,West,281,0.0,0.0,97,0.00,,,0.00,,2013-04-26 13:31:00,
2013-04-26 06:41:00,39.0,38.0,30.24,West,281,0.0,0.0,97,0.00,,,0.00,,2013-04-26 13:41:00,
2013-04-26 06:52:00,39.0,38.0,30.24,West,281,0.0,0.0,97,0.00,,,0.00,,2013-04-26 13:52:00,
2013-04-26 07:01:00,39.0,38.0,30.25,NE,36,0.0,0.0,98,0.00,,,0.00,,2013-04-26 14:01:00,
2013-04-26 07:11:00,39.0,38.0,30.25,NE,36,0.0,0.0,98,0.00,,,0.00,,2013-04-26 14:11:00,
2013-04-26 07:21:00,40.0,39.0,30.26,ENE,77,0.0,0.0,98,0.00,,,0.00,,2013-04-26 14:21:00,
2013-04-26 07:31:00,40.0,39.0,30.26,ENE,58,0.0,0.0,98,0.00,,,0.00,,2013-04-26 14:31:00,
2013-04-26 07:41:00,40.0,39.0,30.26,ENE,58,0.0,0.0,98,0.00,,,0.00,,2013-04-26 14:41:00,
2013-04-26 07:52:00,41.0,40.0,30.26,North,7,0.0,0.0,98,0.00,,,0.00,,2013-04-26 14:52:00,
2013-04-26 08:01:00,41.0,40.0,30.27,ENE,63,0.0,0.0,98,0.00,,,0.00,,2013-04-26 15:01:00,
2013-04-26 08:11:00,41.0,40.0,30.27,ENE,63,0.0,0.0,98,0.00,,,0.00,,2013-04-26 15:11:00,
2013-04-26 08:21:00,41.0,40.0,30.27,NNE,33,0.0,0.0,98,0.00,,,0.00,,2013-04-26 15:21:00,
2013-04-26 08:33:00,42.0,41.0,30.27,SW,229,0.0,0.0,98,0.00,,,0.00,,2013-04-26 15:33:00,
2013-04-26 08:42:00,42.0,41.0,30.27,SW,229,0.0,0.0,98,0.00,,,0.00,,2013-04-26 15:42:00,
2013-04-26 08:53:00,42.0,41.0,30.27,North,7,0.0,0.0,98,0.00,,,0.00,,2013-04-26 15:53:00,
2013-04-26 09:03:00,43.0,42.0,30.27,SW,231,0.0,0.0,98,0.00,,,0.00,,2013-04-26 16:03:00,
2013-04-26 09:12:00,43.0,42.0,30.27,SW,231,0.0,0.0,98,0.00,,,0.00,,2013-04-26 16:12:00,
2013-04-26 09:23:00,43.0,42.0,30.27,WSW,256,0.0,0.0,98,0.00,,,0.00,,2013-04-26 16:23:00,
2013-04-26 09:32:00,44.0,43.0,30.27,SW,217,0.0,0.0,98,0.00,,,0.00,,2013-04-26 16:32:00,
2013-04-26 09:42:00,44.0,43.0,30.27,SW,217,0.0,0.0,98,0.00,,,0.00,,2013-04-26 16:42:00,
2013-04-26 09:52:00,44.0,43.0,30.27,WNW,288,0.0,0.0,98,0.00,,,0.00,,2013-04-26 16:52:00,
2013-04-26 10:02:00,45.0,44.0,30.26,SW,215,0.0,0.0,98,0.00,,,0.00,,2013-04-26 17:02:00,
2013-04-26 10:11:00,45.0,44.0,30.26,SW,215,0.0,0.0,98,0.00,,,0.00,,2013-04-26 17:11:00,
2013-04-26 10:21:00,46.0,45.0,30.27,SSE,167,0.0,0.0,97,0.00,,,0.00,,2013-04-26 17:21:00,
2013-04-26 10:31:00,47.0,46.0,30.27,SSW,212,0.0,0.0,95,0.00,,,0.00,,2013-04-26 17:31:00,
2013-04-26 10:41:00,47.0,46.0,30.27,SSW,212,0.0,0.0,95,0.00,,,0.00,,2013-04-26 17:41:00,
2013-04-26 10:52:00,48.0,46.0,30.27,WSW,240,0.0,0.0,94,0.00,,,0.00,,2013-04-26 17:52:00,
2013-04-26 11:02:00,50.0,47.0,30.26,SSW,209,0.0,0.0,90,0.00,,,0.00,,2013-04-26 18:02:00,
2013-04-26 11:11:00,50.0,47.0,30.26,SSW,209,0.0,0.0,90,0.00,,,0.00,,2013-04-26 18:11:00,
2013-04-26 11:22:00,53.0,49.0,30.26,West,262,0.0,0.0,86,0.00,,,0.00,,2013-04-26 18:22:00,
2013-04-26 11:33:00,55.0,48.0,30.26,NE,41,0.0,3.0,78,0.00,,,0.00,,2013-04-26 18:33:00,
2013-04-26 11:41:00,55.0,48.0,30.26,NE,41,0.0,3.0,78,0.00,,,0.00,,2013-04-26 18:41:00,
2013-04-26 11:51:00,58.0,49.0,30.26,WSW,257,0.0,2.0,73,0.00,,,0.00,,2013-04-26 18:51:00,
2013-04-26 12:01:00,58.0,49.0,30.26,WSW,257,0.0,2.0,73,0.00,,,0.00,,2013-04-26 19:01:00,
2013-04-26 12:11:00,58.0,49.0,30.26,WSW,257,0.0,2.0,73,0.00,,,0.00,,2013-04-26 19:11:00,
2013-04-26 12:22:00,60.0,48.0,30.26,NNW,341,0.0,3.0,64,0.00,,,0.00,,2013-04-26 19:22:00,
2013-04-26 12:31:00,63.0,49.0,30.25,SSE,161,0.0,0.0,60,0.00,,,0.00,,2013-04-26 19:31:00,
2013-04-26 12:41:00,63.0,49.0,30.25,SSE,161,0.0,0.0,60,0.00,,,0.00,,2013-04-26 19:41:00,
2013-04-26 12:52:00,66.0,49.0,30.25,SSE,155,0.0,0.0,54,0.00,,,0.00,,2013-04-26 19:52:00,
2013-04-26 13:02:00,66.0,47.0,30.25,West,281,0.0,0.0,51,0.00,,,0.00,,2013-04-26 20:02:00,
2013-04-26 13:11:00,66.0,47.0,30.25,West,281,0.0,0.0,51,0.00,,,0.00,,2013-04-26 20:11:00,
2013-04-26 13:21:00,68.0,48.0,30.25,WNW,290,0.0,1.0,48,0.00,,,0.00,,2013-04-26 20:21:00,
2013-04-26 13:32:00,68.0,48.0,30.25,NW,309,0.0,2.0,49,0.00,,,0.00,,2013-04-26 20:32:00,
2013-04-26 13:41:00,68.0,48.0,30.25,NW,309,0.0,2.0,49,0.00,,,0.00,,2013-04-26 20:41:00,
2013-04-26 13:51:00,68.0,49.0,30.25,West,268,0.0,3.0,51,0.00,,,0.00,,2013-04-26 20:51:00,
2013-04-26 14:01:00,69.0,48.0,30.25,SSW,195,0.0,4.0,48,0.00,,,0.00,,2013-04-26 21:01:00,
2013-04-26 14:11:00,69.0,48.0,30.25,SSW,195,0.0,4.0,48,0.00,,,0.00,,2013-04-26 21:11:00,
2013-04-26 14:21:00,70.0,49.0,30.25,ENE,73,0.0,5.0,47,0.00,,,0.00,,2013-04-26 21:21:00,
2013-04-26 14:32:00,70.0,50.0,30.24,WNW,302,0.0,3.0,49,0.00,,,0.00,,2013-04-26 21:32:00,
2013-04-26 14:42:00,70.0,50.0,30.24,WNW,302,0.0,3.0,49,0.00,,,0.00,,2013-04-26 21:42:00,
2013-04-26 14:52:00,71.0,49.0,30.24,ENE,61,0.0,5.0,45,0.00,,,0.00,,2013-04-26 21:52:00,
2013-04-26 15:02:00,72.0,47.0,30.24,NW,319,0.0,5.0,41,0.00,,,0.00,,2013-04-26 22:02:00,
2013-04-26 15:12:00,72.0,47.0,30.24,NW,319,0.0,5.0,41,0.00,,,0.00,,2013-04-26 22:12:00,
2013-04-26 15:22:00,73.0,47.0,30.24,NE,34,0.0,3.0,39,0.00,,,0.00,,2013-04-26 22:22:00,
2013-04-26 15:32:00,73.0,42.0,30.24,NW,318,0.0,5.0,33,0.00,,,0.00,,2013-04-26 22:32:00,
2013-04-26 15:42:00,73.0,42.0,30.24,NW,318,0.0,5.0,33,0.00,,,0.00,,2013-04-26 22:42:00,
2013-04-26 15:52:00,74.0,39.0,30.24,North,357,0.0,6.0,28,0.00,,,0.00,,2013-04-26 22:52:00,
2013-04-26 16:01:00,74.0,36.0,30.23,NW,312,0.0,4.0,25,0.00,,,0.00,,2013-04-26 23:01:00,
2013-04-26 16:11:00,74.0,36.0,30.23,NW,312,0.0,4.0,25,0.00,,,0.00,,2013-04-26 23:11:00,
2013-04-26 16:21:00,75.0,36.0,30.23,NE,39,0.0,5.0,24,0.00,,,0.00,,2013-04-26 23:21:00,
2013-04-26 16:32:00,75.0,35.0,30.22,WSW,257,0.0,4.0,23,0.00,,,0.00,,2013-04-26 23:32:00,
2013-04-26 16:42:00,75.0,35.0,30.22,WSW,257,0.0,4.0,23,0.00,,,0.00,,2013-04-26 23:42:00,
2013-04-26 16:52:00,75.0,34.0,30.22,West,267,0.0,3.0,22,0.00,,,0.00,,2013-04-26 23:52:00,
2013-04-26 17:01:00,75.0,32.0,30.21,WNW,300,1.0,5.0,21,0.00,,,0.00,,2013-04-27 00:01:00,
2013-04-26 17:11:00,75.0,32.0,30.21,WNW,300,1.0,5.0,21,0.00,,,0.00,,2013-04-27 00:11:00,
2013-04-26 17:21:00,74.0,34.0,30.20,WNW,295,0.0,2.0,23,0.00,,,0.00,,2013-04-27 00:21:00,
2013-04-26 17:32:00,74.0,32.0,30.20,NW,304,0.0,3.0,21,0.00,,,0.00,,2013-04-27 00:32:00,
2013-04-26 17:41:00,74.0,32.0,30.20,NW,304,0.0,3.0,21,0.00,,,0.00,,2013-04-27 00:41:00,
2013-04-26 17:51:00,74.0,32.0,30.20,NW,318,0.0,4.0,21,0.00,,,0.00,,2013-04-27 00:51:00,
2013-04-26 18:01:00,74.0,32.0,30.20,WNW,290,1.0,6.0,21,0.00,,,0.00,,2013-04-27 01:01:00,
2013-04-26 18:11:00,74.0,32.0,30.20,WNW,290,1.0,6.0,21,0.00,,,0.00,,2013-04-27 01:11:00,
2013-04-26 18:21:00,74.0,32.0,30.20,NW,310,0.0,6.0,21,0.00,,,0.00,,2013-04-27 01:21:00,
2013-04-26 18:32:00,73.0,33.0,30.20,West,266,0.0,4.0,23,0.00,,,0.00,,2013-04-27 01:32:00,
2013-04-26 18:41:00,73.0,33.0,30.20,West,266,0.0,4.0,23,0.00,,,0.00,,2013-04-27 01:41:00,
2013-04-26 18:52:00,72.0,33.0,30.20,WSW,253,0.0,1.0,24,0.00,,,0.00,,2013-04-27 01:52:00,
2013-04-26 19:01:00,72.0,34.0,30.20,West,260,0.0,5.0,25,0.00,,,0.00,,2013-04-27 02:01:00,
2013-04-26 19:11:00,72.0,34.0,30.20,West,260,0.0,5.0,25,0.00,,,0.00,,2013-04-27 02:11:00,
2013-04-26 19:21:00,70.0,33.0,30.20,SE,141,0.0,3.0,25,0.00,,,0.00,,2013-04-27 02:21:00,
2013-04-26 19:32:00,70.0,35.0,30.20,ESE,120,0.0,0.0,28,0.00,,,0.00,,2013-04-27 02:32:00,
2013-04-26 19:42:00,70.0,35.0,30.20,ESE,120,0.0,0.0,28,0.00,,,0.00,,2013-04-27 02:42:00,
2013-04-26 19:51:00,69.0,36.0,30.21,NW,314,0.0,4.0,30,0.00,,,0.00,,2013-04-27 02:51:00,
2013-04-26 20:02:00,67.0,36.0,30.22,WNW,290,0.0,7.0,32,0.00,,,0.00,,2013-04-27 03:02:00,
2013-04-26 20:11:00,67.0,36.0,30.22,WNW,290,0.0,7.0,32,0.00,,,0.00,,2013-04-27 03:11:00,
2013-04-26 20:22:00,64.0,34.0,30.22,NW,304,0.0,5.0,32,0.00,,,0.00,,2013-04-27 03:22:00,
2013-04-26 20:32:00,63.0,32.0,30.22,West,274,0.0,2.0,31,0.00,,,0.00,,2013-04-27 03:32:00,
2013-04-26 20:42:00,63.0,32.0,30.22,West,274,0.0,2.0,31,0.00,,,0.00,,2013-04-27 03:42:00,
2013-04-26 20:52:00,61.0,32.0,30.22,WNW,293,0.0,5.0,34,0.00,,,0.00,,2013-04-27 03:52:00,
2013-04-26 21:02:00,60.0,35.0,30.22,East,98,0.0,0.0,39,0.00,,,0.00,,2013-04-27 04:02:00,
2013-04-26 21:12:00,60.0,35.0,30.22,East,98,0.0,0.0,39,0.00,,,0.00,,2013-04-27 04:12:00,
2013-04-26 21:22:00,59.0,37.0,30.22,West,281,0.0,3.0,43,0.00,,,0.00,,2013-04-27 04:22:00,
2013-04-26 21:33:00,57.0,36.0,30.23,West,275,0.0,0.0,46,0.00,,,0.00,,2013-04-27 04:33:00,
2013-04-26 21:43:00,57.0,36.0,30.23,West,275,0.0,0.0,46,0.00,,,0.00,,2013-04-27 04:43:00,
2013-04-26 21:52:00,56.0,38.0,30.23,West,274,0.0,0.0,51,0.00,,,0.00,,2013-04-27 04:52:00,
2013-04-26 22:02:00,53.0,39.0,30.23,West,274,0.0,0.0,59,0.00,,,0.00,,2013-04-27 05:02:00,
2013-04-26 22:12:00,53.0,39.0,30.23,West,274,0.0,0.0,59,0.00,,,0.00,,2013-04-27 05:12:00,
2013-04-26 22:22:00,51.0,40.0,30.23,West,274,0.0,0.0,66,0.00,,,0.00,,2013-04-27 05:22:00,
2013-04-26 22:32:00,49.0,39.0,30.24,West,274,0.0,0.0,69,0.00,,,0.00,,2013-04-27 05:32:00,
2013-04-26 22:42:00,49.0,39.0,30.24,West,274,0.0,0.0,69,0.00,,,0.00,,2013-04-27 05:42:00,
2013-04-26 22:51:00,48.0,40.0,30.24,West,274,0.0,0.0,73,0.00,,,0.00,,2013-04-27 05:51:00,
2013-04-26 23:01:00,47.0,40.0,30.24,West,274,0.0,0.0,77,0.00,,,0.00,,2013-04-27 06:01:00,
2013-04-26 23:12:00,47.0,40.0,30.24,West,274,0.0,0.0,77,0.00,,,0.00,,2013-04-27 06:12:00,
2013-04-26 23:22:00,45.0,39.0,30.25,West,274,0.0,0.0,80,0.00,,,0.00,,2013-04-27 06:22:00,
2013-04-26 23:32:00,45.0,40.0,30.25,West,275,0.0,0.0,82,0.00,,,0.00,,2013-04-27 06:32:00,
2013-04-26 23:41:00,45.0,40.0,30.25,West,275,0.0,0.0,82,0.00,,,0.00,,2013-04-27 06:41:00,
2013-04-26 23:51:00,44.0,39.0,30.25,West,275,0.0,0.0,83,0.00,,,0.00,,2013-04-27 06:51:00,